Change the Weather History Date:

Saturday, January 11, 2014

  Actual Average Record
Temperature  
Mean Temperature 78 °F -  
Max Temperature 84 °F 85 °F - ()
Min Temperature 72 °F 74 °F - ()
Cooling Degree Days 13    
Growing Degree Days 28 (Base 50)    
Moisture  
Dew Point 77 °F    
Average Humidity 87    
Maximum Humidity 100    
Minimum Humidity 78    
Precipitation  
Precipitation 1.69 in 0.49 in - ()
Sea Level Pressure  
Sea Level Pressure 29.84 in    
Wind  
Wind Speed 11 mph ()    
Max Wind Speed 16 mph    
Max Gust Speed 28 mph    
Visibility 5.8 miles    
Events Rain    
T = Trace of Precipitation, MM = Missing Value Source: Averaged Metar Reports

Daily Weather History Graph

Daily Weather History Graph

Search for Another Location

Airport or City:

Trip Planner

Search our weather history database for the weather conditions in past years. The results will help you decide how hot, cold, wet, or windy it might be!

Date:

Astronomy

Jan. 11, 2014 Rise Set
Actual Time 6:21 AM MYT 6:09 PM MYT
Civil Twilight 5:58 AM MYT 6:32 PM MYT
Nautical Twilight 5:33 AM MYT 6:58 PM MYT
Astronomical Twilight 5:07 AM MYT 7:23 PM MYT
Moon 2:18 PM MYT (1/11) 2:08 AM MYT (1/11)
Length of Visible Light 12h 33m
Length of Day
11h 48m
Waxing Gibbous, 79% of the Moon is Illuminated
Jan 11
Waxing Gibbous
Jan 16
Full
Jan 24
Last Quarter
Jan 31
New
Feb 7
First Quarter

Hourly Weather History & Observations

Time (MYT) Temp. Heat Index Dew Point Humidity Pressure Visibility Wind Dir Wind Speed Gust Speed Precip Events Conditions
12:00 AM 80.6 °F 87.1 °F 77.0 °F 89% 29.86 in 6.2 mi East 13.8 mph - N/A   Mostly Cloudy
1:00 AM 80.6 °F 87.1 °F 77.0 °F 89% 29.83 in 5.6 mi ENE 12.7 mph - N/A Rain Light Rain
2:00 AM 80 °F - 76 °F 84% 29.84 in 6 mi East 11.5 mph - - Rain Light Rain
2:00 AM 80.6 °F 87.1 °F 77.0 °F 89% 29.83 in 6.2 mi East 11.5 mph - N/A Rain Light Rain
3:00 AM 78.8 °F - 73.4 °F 83% 29.83 in 6.2 mi NE 16.1 mph 27.6 mph N/A Rain Light Rain
4:00 AM 80.6 °F 86.2 °F 75.2 °F 84% 29.83 in 6.2 mi ENE 15.0 mph - N/A Rain Light Rain
5:00 AM 81 °F - 76 °F 79% 29.84 in 7 mi ENE 12.7 mph - - Rain Light Rain
5:00 AM 80.6 °F 86.2 °F 75.2 °F 84% 29.83 in 6.2 mi ENE 12.7 mph - N/A   Overcast
6:00 AM 80.6 °F 87.1 °F 77.0 °F 89% 29.83 in 6.2 mi ENE 11.5 mph - N/A   Overcast
7:00 AM 80.6 °F 87.1 °F 77.0 °F 89% 29.86 in 6.2 mi ENE 9.2 mph - N/A   Overcast
8:00 AM 82 °F - 77 °F 80% 29.90 in 6 mi ENE 15.0 mph - -   Partly Cloudy
8:00 AM 82.4 °F 90.9 °F 77.0 °F 84% 29.89 in 6.2 mi ENE 15.0 mph - N/A   Mostly Cloudy
9:00 AM 82.4 °F 90.9 °F 77.0 °F 84% 29.89 in 6.2 mi ENE 15.0 mph - N/A Rain Light Rain
10:00 AM 84.2 °F 96.1 °F 78.8 °F 84% 29.89 in 6.2 mi ENE 13.8 mph - N/A   Overcast
11:00 AM 84 °F - 78 °F 78% 29.89 in 7 mi ENE 13.8 mph - -   Haze
11:00 AM 84.2 °F 96.1 °F 78.8 °F 84% 29.89 in 6.2 mi ENE 13.8 mph - N/A   Overcast
12:00 PM 84.2 °F 94.1 °F 77.0 °F 79% 29.86 in 6.2 mi ENE 10.4 mph - N/A   Overcast
1:00 PM 84.2 °F 96.1 °F 78.8 °F 84% 29.83 in 6.2 mi NE 10.4 mph - N/A   Overcast
2:00 PM 77 °F - 76 °F 97% 29.81 in 3 mi NNE 9.2 mph - - Rain Light Rain
2:00 PM 77.0 °F - 77.0 °F 100% 29.80 in 3.1 mi NNE 9.2 mph - N/A Rain Light Rain
3:00 PM 78.8 °F - 77.0 °F 94% 29.77 in 4.3 mi North 3.5 mph - N/A Rain Light Rain
4:00 PM 80.6 °F 87.1 °F 77.0 °F 89% 29.77 in 4.3 mi NNE 10.4 mph - N/A Rain Light Rain
5:00 PM 82 °F - 78 °F 83% 29.81 in 4 mi NNE 9.2 mph - - Rain Light Rain
5:00 PM 82.4 °F 90.9 °F 77.0 °F 84% 29.80 in 4.3 mi NNE 9.2 mph - N/A Rain Light Rain
6:00 PM 80.6 °F 87.1 °F 77.0 °F 89% 29.80 in 5.6 mi NNE 9.2 mph - N/A   Overcast
7:00 PM 78.8 °F - 77.0 °F 94% 29.83 in 4.3 mi NE 8.1 mph - N/A Rain Light Rain
8:00 PM 80 °F - 77 °F 89% 29.86 in 7 mi NE 9.2 mph - - Rain Light Rain
8:00 PM 80.6 °F 87.1 °F 77.0 °F 89% 29.86 in 6.2 mi NE 9.2 mph - N/A Rain Light Rain
9:00 PM 80.6 °F 87.1 °F 77.0 °F 89% 29.86 in 6.2 mi NNE 8.1 mph - N/A Rain Light Rain
10:00 PM 78.8 °F - 77.0 °F 94% 29.86 in 6.2 mi NNE 8.1 mph - N/A Rain Light Rain
11:00 PM 79 °F - 77 °F 92% 29.87 in 9 mi North 8.1 mph - - Rain Light Rain
11:00 PM 78.8 °F - 77.0 °F 94% 29.86 in 6.2 mi North 8.1 mph - N/A   Overcast